Location: Unspecified
(49.8670°N, 0.0000°E)
Time: 05:23:48
(UTC+00:00)

Vanguard 1 Rocket - All Passes

Search period start: 20 June 2019 00:00
Search period end: 30 June 2019 00:00
Orbit: 652 x 4224 km, 34.3° (Epoch: 18 June)

Date Brightness Start Highest point End Pass type
(mag) Time Alt. Az. Time Alt. Az. Time Alt. Az.
20 Jun - 15:10:55 10° S 15:19:30 15° SSE 15:26:08 10° ESE daylight
20 Jun - 17:34:13 10° SW 17:46:00 27° S 17:53:18 10° ESE daylight
20 Jun - 20:02:39 10° WSW 20:11:11 27° S 20:16:35 10° SE daylight
20 Jun - 22:33:01 10° SW 22:34:45 11° SSW 22:36:18 10° SSW visible
21 Jun - 16:21:20 10° SSW 16:34:08 24° SSE 16:42:24 10° ESE daylight
21 Jun - 18:49:00 10° SW 19:00:06 31° S 19:06:42 10° ESE daylight
21 Jun - 21:18:29 10° WSW 21:24:23 19° SSW 21:28:36 10° SSE visible
22 Jun - 15:09:26 10° SSW 15:21:55 20° SSE 15:30:42 10° ESE daylight
22 Jun - 17:35:15 10° SW 17:48:35 31° S 17:56:27 10° ESE daylight
22 Jun - 20:04:42 10° WSW 20:13:44 27° SSW 20:19:22 10° SE daylight
23 Jun - 13:59:32 10° S 14:09:29 15° SE 14:17:22 10° ESE daylight
23 Jun - 16:21:45 10° SW 16:36:38 30° SSE 16:45:46 10° ESE daylight
23 Jun - 18:50:41 10° WSW 19:02:40 33° S 19:09:37 10° SE daylight
23 Jun - 21:21:03 10° WSW 21:26:47 18° SSW 21:30:57 10° S visible
24 Jun - 15:08:58 10° SSW 15:24:17 26° SSE 15:34:28 10° ESE daylight
24 Jun - 17:36:31 10° SW 17:51:07 35° S 17:59:28 10° ESE daylight
24 Jun - 20:06:50 10° WSW 20:16:12 27° SSW 20:22:02 10° SE daylight
25 Jun - 13:57:35 10° S 14:11:42 21° SSE 14:22:06 10° ESE daylight
25 Jun - 16:22:30 10° SW 16:39:05 34° SSE 16:48:55 10° ESE daylight
25 Jun - 18:52:30 10° WSW 19:05:10 34° SSW 19:12:25 10° SE daylight
25 Jun - 21:23:48 10° WSW 21:29:05 16° SW 21:33:03 10° S visible
26 Jun - 12:48:55 10° SSE 12:59:01 14° SE 13:07:32 10° ESE daylight
26 Jun - 15:09:05 10° SSW 15:26:37 31° SSE 15:37:49 10° ESE daylight
26 Jun - 17:37:58 10° WSW 17:53:35 38° S 18:02:22 10° ESE daylight
26 Jun - 20:09:03 10° WSW 20:18:35 26° SSW 20:24:34 10° SSE daylight
27 Jun - 13:56:47 10° SSW 14:13:52 26° SSE 14:25:55 10° ESE daylight
27 Jun - 16:23:32 10° SW 16:41:29 38° S 16:51:54 10° ESE daylight
27 Jun - 18:54:23 10° WSW 19:07:35 34° SSW 19:15:09 10° SE daylight
27 Jun - 21:26:52 10° WSW 21:31:16 14° SW 21:34:46 10° SSW visible
28 Jun - 12:46:20 10° S 13:01:00 20° SE 13:12:38 10° ESE daylight
28 Jun - 15:09:37 10° SW 15:28:53 36° SSE 15:40:56 10° ESE daylight
28 Jun - 17:39:33 10° WSW 17:56:00 40° S 18:05:11 10° ESE daylight
28 Jun - 20:11:21 10° WSW 20:20:51 24° SSW 20:26:56 10° SSE daylight
29 Jun - 11:39:46 10° SSE 11:48:16 13° SE 11:55:58 10° ESE daylight
29 Jun - 13:56:40 10° SSW 14:15:58 31° SSE 14:29:17 10° E daylight
29 Jun - 16:24:47 10° WSW 16:43:49 42° S 16:54:46 10° ESE daylight
29 Jun - 18:56:20 10° WSW 19:09:55 34° SSW 19:17:45 10° SE daylight
29 Jun - 21:30:39 10° WSW 21:33:19 11° SW 21:35:38 10° SSW visible
